621  
ASUS44 KFWD 081915  
RWRFWD  
NORTH TEXAS HOURLY WEATHER ROUNDUP  
NATIONAL WEATHER SERVICE FORT WORTH TX  
100 PM CST THU DEC 08 2022  
 
NOTE: "FAIR" INDICATES FEW OR NO CLOUDS BELOW 12,000 FEET WITH NO  
SIGNIFICANT WEATHER AND/OR S TO VISIBILITY
.  
 
TXZ118-119-082000-  
DALLAS/FORT WORTH METROPLEX  
 
CITY SKY/WX TMP DP RH WIND PRES REMARKS
 
DFW AIRPORT PTSUNNY 73 63 70 VRB3 30.10F  
DALLAS LOVE PTSUNNY 71 62 73 NW6 30.11F  
FTW MEACHAM MOSUNNY 72 66 81 W6 30.10F  
DAL-EXECUTIVE PTSUNNY 74 67 78 W7 30.10F  
FTW-ALLIANCE PTSUNNY 70 63 78 CALM 30.11F  
FTW-NAS-JRB MOSUNNY 70 63 78 VRB6 30.11  
FTW-SPINKS PTSUNNY 77 66 69 SW6 30.12F  
ARLINGTON CLOUDY 72 66 81 CALM 30.10F  
GRAND PRAIRIE RAIN 70 63 78 CALM 30.13F  
ADDISON PTSUNNY 68 61 77 W5 30.13F  
MESQUITE PTSUNNY 73 68 83 SW3 30.11F  
LANCASTER CLOUDY 76 66 69 SW8 30.11F  

 
 
TXZ091>094-102>105-117-120-121-131>134-082000-  
NORTH CENTRAL TEXAS  
 
CITY SKY/WX TMP DP RH WIND PRES REMARKS
 
SHRMAN/DENISON NOT AVBL  
GAINESVILLE PTSUNNY 68 60 77 S3 30.12F  
BOWIE CLOUDY 68 58 71 CALM 30.12F  
BRIDGEPORT CLOUDY 66 59 79 N3 30.14F  
DECATUR PTSUNNY 64 59 84 W7 30.13F HAZE  
DENTON CLOUDY 66 61 84 SW5 30.12F  
MCKINNEY CLOUDY 68 60 75 CALM 30.11F  
BONHAM CLOUDY 69 62 80 W8 30.12F  
GREENVILLE CLOUDY 69 65 88 N7 30.12F  
ROCKWALL CLOUDY 72 68 87 CALM 30.12F  
TERRELL CLOUDY 74 67 78 SW6 30.11F  
WAXAHACHIE CLOUDY 77 67 71 SW14 30.12F  
CLEBURNE CLOUDY 75 68 78 SW5 30.12F  
GRANBURY CLOUDY 72 65 77 N5 30.12F  

 
 
TXZ083>090-098>101-113>116-127>130-139>142-154-155-082000-  
WESTERN NORTH TEXAS  
 
CITY SKY/WX TMP DP RH WIND PRES REMARKS
 
WICHITA FALLS CLOUDY 57 56 96 SW7 30.12F  
WF-KICKAPOO CLOUDY 57 56 94 SW5 30.14F  
VERNON MOSUNNY 66 58 76 W5 30.12F  
ABILENE MOSUNNY 74 61 63 SW7 30.13F  
ABILENE-DYESS MOSUNNY 74 58 58 W7 30.10F  
GRAHAM CLOUDY 69 60 73 CALM 30.11F  
BRECKENRIDGE PTSUNNY 72 62 70 W3 30.13F HAZE  
CISCO PTSUNNY 75 63 64 SW9 30.12F  
EASTLAND CLOUDY 72 61 68 CALM 30.13F  
RANGER CLOUDY 73 62 67 W3 30.13F  
MINERAL WELLS MOSUNNY 70 64 81 VRB3 30.10F  
STEPHENVILLE PTSUNNY 77 63 61 SW5 30.14F  
COMANCHE MOSUNNY 77 65 65 W10 30.12F  
BROWNWOOD PTSUNNY 77 64 65 S7 30.12F  
COLEMAN MOSUNNY 76 62 62 W5 30.14F  
BRADY MOSUNNY 75 63 64 SW13 30.13F  
SAN SABA CLOUDY 75 65 72 SW14 30.15F  

 
 
TXZ143>147-156>162-174-175-082000-  
CENTRAL TEXAS  
 
CITY SKY/WX TMP DP RH WIND PRES REMARKS
 
WACO CLOUDY 77 67 71 SW10G22 30.11F  
WACO-TSTC PTSUNNY 77 66 69 SW10 30.12F  
WACO-MCGREGOR SUNNY 80 67 64 SW15 30.12F  
HILLSBORO CLOUDY 74 68 82 SW9 30.12F  
CORSICANA PTSUNNY 78 66 66 SW16 30.12F  
MEXIA PTSUNNY 79 66 64 SW16 30.12F  
HEARNE PTSUNNY 81 67 62 S14 30.14F  
CAMERON MOSUNNY 80 67 64 SW14 30.13F  
TEMPLE PTSUNNY 80 67 64 SW9 30.13F  
KILLEEN CLOUDY 77 64 65 SW6 30.08F  
KILLEEN-SKYLRK PTSUNNY 77 66 68 SW7 30.13F  
FORT HOOD CLOUDY 79 65 62 S9 30.12F  
GATESVILLE MOSUNNY 77 66 69 MISG 30.14F  
HAMILTON CLOUDY 77 66 67 SW15 30.14F  
LAMPASAS CLOUDY 74 65 71 SW10 30.11F  

 
 
TXZ095>097-106>112-122>126-135>138-148>153-164>167-082000-  
EAST TEXAS  
 
CITY SKY/WX TMP DP RH WIND PRES REMARKS
 
PARIS CLOUDY 66 66 100 W6 30.12F FOG  
SULPHUR SPRNGS CLOUDY 67 65 96 N5 30.14F FOG  
MOUNT PLEASANT CLOUDY 74 69 82 SW10 30.10F  
GILMER PTSUNNY 75 64 69 SW9G16 30.11F  
MINEOLA CLOUDY 75 66 73 SW8 30.11F  
TYLER CLOUDY 77 67 71 SW13 30.11F  
LONGVIEW PTSUNNY 78 66 66 SW10 30.11F  
MARSHALL MOSUNNY 77 66 68 SW12 30.11F  
ATHENS CLOUDY 77 66 69 SW8 30.10F  
PALESTINE PTSUNNY 79 68 69 SW12 30.11F  
JACKSONVILLE CLOUDY 75 66 75 SW6 30.15F  
HENDERSON CLOUDY 81 61 50 SW10G16 30.14F  
CENTER CLOUDY 79 64 61 S10G16 30.15F  
NACOGDOCHES CLOUDY 79 68 69 SW14 30.14F  
LUFKIN PTSUNNY 79 67 66 S8 30.15F  

 
 
SUPPLEMENTAL OBSERVATIONS (NWS FORT WORTH AREA)  
 
CITY SKY/WX TMP DP RH WIND PRES REMARKS
 
CADDO GRASSLND N/A 66 59 77 S7 N/A  
LBJ GRASSLAND N/A 66 59 77 SW3 N/A  
POSSUM KINGDOM N/A 72 59 64 N3 N/A  
GRANBURY N/A 73 64 73 N5 N/A  
TEMPLE N/A 79 66 65 SW13 N/A  

 
 
SUPPLEMENTAL OBSERVATIONS (NWS NORMAN AREA)  
 
CITY SKY/WX TMP DP RH WIND PRES REMARKS
 
GOODLETT N/A 59 54 82 SW5 30.12  
ODELL N/A 62 57 83 SW6 30.13F  
CROWELL N/A 69 57 64 NW6 30.12F  
KNOX CITY N/A 67 59 74 CALM 30.12  
SEYMOUR N/A 68 59 73 SW7 30.12F  

 
 
SUPPLEMENTAL OBSERVATIONS (NWS SAN ANGELO AREA)  
 
CITY SKY/WX TMP DP RH WIND PRES REMARKS
 
WEINERT N/A 67 60 77 CALM 30.13F  
THROCKMORTON N/A 66 61 84 W5 30.13  
STAMFORD N/A 69 64 85 W12 30.13  
CLYDE N/A 75 63 66 SW12 30.15F  
HAMBY N/A 75 61 60 NW5 N/A  

 
 
SUPPLEMENTAL OBSERVATIONS (NWS SHREVEPORT AREA)  
 
CITY SKY/WX TMP DP RH WIND PRES REMARKS
 
TEXARKANA N/A 75 68 78 S3 N/A  
CADDO LAKE N/A 79 66 65 N1G10 N/A  
LUFKIN N/A 79 68 69 MISG N/A  
N SABINE NF N/A 81 66 61 MISG N/A  

 
 
SUPPLEMENTAL OBSERVATIONS ARE A COLLECTION OF AUTOMATED INSTRUMENTS  
THAT ARE MAINTAINED BY A VARIETY OF FEDERAL AND STATE AGENCIES.  
CERTAIN ELEMENTS...SUCH AS HUMIDITY VALUES AND SUSTAINED WIND  
SPEEDS...MAY BE APPROXIMATED.  
 
 
 
CLICK HERE TO GO TO PREVIOUS BULLETINS.

The Nexlab TX Page Main Text Page